COSMOS 886 DEB

Satellite information

Favourite Embed

Satellite Type and Status

DEBRISIN ORBIT

Key statistics

Satellite COSMOS 886 DEB at a glance.

Uptime

17667

Days in orbit

Revolutions

≈ 12.6

Per day

Orbit

MEO

Medium Earth Orbit

Inclination

65.9

Latest

Satellite identification and parameters

Extended collection of information and parameters for COSMOS 886 DEB.

Object identification

Identified? True

Debris? True

Object name: COSMOS 886 DEB

International designator: 1976-126AY

Object number (NORAD): 9958

Object ID (CCSDS): 9958

Country: COMMONWEALTH OF INDEPENDENT STATES (CIS)

Current information (Y/N): Y

RCS size: SMALL

Orbital parameters

Period: 114.146 minutes

Inclination: 65.8733 deg

SMA: 7794.714 km

Apoapsis: 2108.869 km

Periapsis: 724.289 km

RAAN: 271.5007 deg

Eccentricy: 0.0888153

Argument of periapsis: 35.2082 deg

Mean anomaly: 330.4416 deg

Mean motion: 12.6154417 rev/day

Mean motion (dot): -0.00000099 rev/day2

B* drag term: -0.000047027 1/REarth

Two-line elements (TLE)

Creation date: May 11, 2025, 2:40 a.m.

Reference frame: TEME

Reference center: EARTH

Epoch: May 10, 2025, 7:58 p.m. UTC

TLE line 0: 0 COSMOS 886 DEB

TLE line 1: 1 09958U 76126AY 25130.83200580 -.00000099 00000-0 -47027-4 0 9994

TLE line 2: 2 09958 65.8733 271.5007 0888153 35.2082 330.4416 12.61544170212669

Live tracking on map

Real-time ground track for satellite COSMOS 886 DEB.

In-orbit conjunctions

A list of the most updated potential collisions computed for object COSMOS 886 DEB.

Target Orbit TCA Probability of collision Miss distance Type
CZ-6A DEB SSO 2024-11-15 23:39:33 0.0001317198 354.0 (m) DEBRIS
COSMOS 878 LEO 2024-05-31 00:47:10 0.0001364652 750.0 (m) PAYLOAD

Associated space launch

Second generation ASAT satellite

COSMOS 886 DEB was lifted into orbit during the mission ‘Tsiklon-2 | IS-A 4’, on board a Tsiklon-2 space rocket.

The launch took place on Dec. 27, 1976, 12:05 p.m. from 90.

For more information about the launch, click the button.

Launch to space Tsiklon-2 | IS-A 4
Tsiklon-2 | IS-A 4

Agency: N/A

Status: Launch Successful

Launch date: Dec. 27, 1976, 12:05 p.m. UTC

Rocket: Tsiklon-2

Launch pad: 90

Location: Baikonur Cosmodrome, Republic of Kazakhstan

...

Latest news about this satellite

There are no fresh news available about this satellite. Check back as we update our databases every day.


Newsletter sign-up

Weekly statistics, charts and insights to help you stay on top of the space industry.